This is the latest recevied weather packets stored in our database for station/object EA3EH-1. If no packets are shown the sender has not sent any weather packets the latest 10 day(s).
| Time | Temp. | Humidity | Pressure | Rain* | Wind** | Luminosity | Snow |
|---|---|---|---|---|---|---|---|
| 1777761708 | 15° C | 49% | 1015 hPa | 0 mm | - | - | - |
| 1777761106 | 15° C | 49% | 1015 hPa | 0 mm | - | - | - |
| 1777760208 | 15° C | 46% | 1015 hPa | 0 mm | - | - | - |
| 1777759906 | 15° C | 46% | 1015 hPa | 0 mm | - | - | - |
| 1777759606 | 15.56° C | 46% | 1016 hPa | 0 mm | - | - | - |
| 1777759007 | 15.56° C | 45% | 1016 hPa | 0 mm | - | - | - |
| 1777758707 | 15.56° C | 45% | 1016 hPa | 0 mm | - | - | - |
| 1777758107 | 15.56° C | 46% | 1016 hPa | 0 mm | - | - | - |
| 1777757206 | 15.56° C | 45% | 1016 hPa | 0 mm | - | - | - |
| 1777756906 | 15.56° C | 44% | 1016 hPa | 0 mm | - | - | - |
| 1777756611 | 15.56° C | 44% | 1016 hPa | 0 mm | - | - | - |
| 1777756008 | 15.56° C | 44% | 1016 hPa | 0 mm | - | - | - |
| 1777755706 | 15.56° C | 43% | 1016 hPa | 0 mm | - | - | - |
| 1777755106 | 15.56° C | 41% | 1016 hPa | 0 mm | - | - | - |
| 1777754506 | 16.11° C | 41% | 1016 hPa | 0 mm | - | - | - |
| 1777753607 | 16.11° C | 40% | 1016 hPa | 0 mm | - | - | - |
| 1777753007 | 16.11° C | 39% | 1016 hPa | 0 mm | - | - | - |
| 1777752706 | 16.11° C | 40% | 1016 hPa | 0 mm | - | - | - |
| 1777751804 | 15.56° C | 39% | 1015 hPa | 0 mm | - | - | - |
| 1777751206 | 16.67° C | 36% | 1015 hPa | 0 mm | - | - | - |
| 1777750605 | 16.67° C | 34% | 1015 hPa | 0 mm | - | - | - |
| 1777749405 | 17.22° C | 29% | 1015 hPa | 0 mm | - | - | - |
| 1777747606 | 17.78° C | 26% | 1015 hPa | 0 mm | - | - | - |
| 1777747005 | 17.78° C | 25% | 1015 hPa | 0 mm | - | - | - |
| 1777746404 | 17.78° C | 25% | 1015 hPa | 0 mm | - | - | - |
* Rain latest hour (hover to see other rain measurements)
** Current wind speed in m/s (hover to see current wind gust speed)